Regional Weather Roundup
Issued by NWS

Home | Current Version | Previous Version | Text Only | Print | Product List | Glossary Off
Versions: 1 2 3 4 5 6 7 8 9 10 11 12 13 14 15 16 17 18 19 20 21 22 23 24 25 26 27 28 29 30 31 32 33 34 35 36 37 38 39 40 41 42 43 44 45 46 47 48 49 50

000
ASUS43 KLOT 272204
RWRIL

ILLINOIS REGIONAL WEATHER ROUNDUP
NATIONAL WEATHER SERVICE CHICAGO/ROMEOVILLE IL
500 PM CDT THU JUL 27 2017

NOTE: "FAIR" INDICATES FEW OR NO CLOUDS BELOW 12,000 FEET WITH NO
SIGNIFICANT WEATHER AND/OR OBSTRUCTIONS TO VISIBILITY.

* THESE STATIONS ARE NOT UNDER NWS QUALITY CONTROL. THEY ALSO MAY NOT
  REPORT WEATHER SUCH AS PRECIPITATION OR FOG.

ILZ001-002-007-009-015-016-024-272300-
NORTHWEST ILLINOIS

CITY           SKY/WX    TMP DP  RH WIND       PRES   REMARKS
MOLINE         MOSUNNY   83  68  60 NE9       29.93S HX  86
STERLING*      MOSUNNY   83  68  60 NE13      29.94F HX  86
SAVANNA*       MOSUNNY   84  65  53 NE8       29.95S HX  86
$$

ILZ003-004-008-010-011-017-018-272300-
NORTH CENTRAL ILLINOIS

CITY           SKY/WX    TMP DP  RH WIND       PRES   REMARKS
ROCKFORD       MOSUNNY   85  61  44 NE17G24   29.96F HX  85
FREEPORT*      SUNNY     80  64  57 NE8       29.98S HX  82
ROCHELLE*      SUNNY     80  62  54 NE16      29.95S HX  81
DE KALB*       SUNNY     80  62  55 NE13      29.96S HX  81
PERU*          MOSUNNY   82  70  67 NE17      29.92S HX  85
$$

ILZ005-006-012>014-019>023-272300-
NORTHEAST ILLINOIS

CITY           SKY/WX    TMP DP  RH WIND       PRES   REMARKS
CHICAGO-OHARE  MOSUNNY   81  59  47 NE20G25   29.94S HX  81
CHICAGO-MIDWAY MOSUNNY   80  66  62 NE16      29.92F HX  82
AURORA         MOSUNNY   81  61  50 NE15      29.94S HX  82
LANSING*       CLOUDY    76  67  74 N12       29.93F
JOLIET*        MOSUNNY   83  67  58 NE12G17   29.91S HX  85
WAUKEGAN       SUNNY     77  60  55 N14G24    29.95S
DUPAGE AIRPORT SUNNY     81  60  48 N17       29.93F HX  82
WHEELING       SUNNY     79  60  52 NE14      29.96S HX  80
MORRIS*        CLOUDY    80  66  61 NE7       29.91R HX  82
ROMEOVILLE*    MOSUNNY   80  61  52 NE18      29.92S HX  81
NORTHERLY ISL    N/A     74  65  73 NW16        N/A
$$

LMZ740>746-272300-
SOUTHERN LAKE MICHIGAN

STATION/POSITION SKY/WX   TEMP    WIND        PRES    VSBY  WAVE
                          AIR SEA DIR/SP/G                  HT/PER
                          (F)     (DEG/KT/KT) (MB)    (MI)  (FT/S)
SOUTHERN BUOY              70 71   10/ 17/ 21 1013.6          3/ 4
WILMETTE HARBOR            71 72  360/ 17/ 21   N/A           5/ 4
HARRISON CRIB              72     350/ 18/ 22   N/A
BURNHAM HARBOR             74                   N/A
CALUMET HARBOR             73     340/ 14/ 19 1013.4F
BURNS HARBOR               73     360/ 15/ 17 1013.5F
MICHIGAN CITY              74     350/ 20/ 22   N/A
MICHIGAN CITY 6N           73 75  360/ 16/ 21   N/A           5/ 4
ST. JOSEPH                 73 74   30/ 16/ 21 1012.5F         4/ 4
$$

ILZ025>027-034>036-040-047-049-050-058-095>099-272300-
WEST-CENTRAL ILLINOIS

CITY           SKY/WX    TMP DP  RH WIND       PRES   REMARKS
QUINCY         MOSUNNY   85  71  63 N14       29.90F HX  90
GALESBURG*     MOSUNNY   81  71  71 N12       29.93S HX  85
MACOMB*        MOSUNNY   83  72  69 N12       29.93F HX  88
JACKSONVILLE*  CLOUDY    81  73  76 N7        29.88F HX  86
PITTSFIELD*    CLOUDY    82  76  83 N7        29.91S HX  88
$$

ILZ028>032-037-038-041>044-048-051>054-059>061-272300-
CENTRAL ILLINOIS

CITY           SKY/WX    TMP DP  RH WIND       PRES   REMARKS
PONTIAC        CLOUDY    81  75  84 N9        29.91S HX  86
BLOOMINGTON    PTSUNNY   83  72  69 N13G21    29.90F HX  88
DECATUR        CLOUDY    82  76  81 NW3       29.87F HX  89
PEORIA         MOSUNNY   83  72  69 NE6       29.89F HX  88
LACON*         PTSUNNY   81  74  77 N6        29.90S HX  87
LINCOLN*       SUNNY     85  75  72 N7        29.88S HX  94
SPRINGFIELD    CLOUDY    84  75  74 N7        29.88F HX  92
TAYLORVILLE    HVY RAIN  75  74  98 W5        29.88F
$$

ILZ033-039-045-046-055>057-062-063-272300-
EAST-CENTRAL ILLINOIS

CITY           SKY/WX    TMP DP  RH WIND       PRES   REMARKS
CHAMPAIGN      PTSUNNY   81  76  84 S3        29.88S HX  87
RANTOUL*       MOSUNNY   85  74  69 N13       29.88S HX  92
MATTOON        CLOUDY    78  76  93 VRB3      29.87F HX  81
PARIS*         RAIN      78  74  90 W7        29.88F
$$

ILZ079-100>102-272300-
SOUTHWEST ILLINOIS

CITY           SKY/WX    TMP DP  RH WIND       PRES   REMARKS
ALTON          PTSUNNY   84  77  79 W8        29.87F HX  94
BELLEVILLE     CLOUDY    85  75  73 SW9       29.88F HX  93
CAHOKIA*       CLOUDY    85  72  65 CALM      29.86F HX  91
SPARTA*        CLOUDY    85  74  69 W6        29.90S HX  92
$$

ILZ064>066-069>071-074>076-080>082-084>086-088>090-092>094-272300-
SOUTH-CENTRAL ILLINOIS

CITY           SKY/WX    TMP DP  RH WIND       PRES   REMARKS
CARBONDALE     CLOUDY    84  76  76 W7        29.88F HX  93
CAIRO*         PTSUNNY   79  76  89 CALM      29.89F HX  83
EFFINGHAM*     CLOUDY    82  74  78 SW9       29.88F HX  88
MARION         PTSUNNY   82  81  94 SE5       29.89F HX  95
MT. VERNON     PTSUNNY   84  74  71 W5        29.88F HX  91
CENTRALIA*     MOSUNNY   84  76  77 W9        29.87F HX  93
SALEM*         CLOUDY    84  74  73 W6        29.88S HX  91
METROPOLIS*    LGT RAIN  81  75  81 CALM      29.90F HX  87
$$

ILZ067-068-072-073-078-083-087-091-272300-
SOUTHEAST ILLINOIS

CITY           SKY/WX    TMP DP  RH WIND       PRES   REMARKS
LAWRENCEVILLE  CLOUDY    84  75  74 SW10      29.86F HX  92
FLORA*         CLOUDY    84  76  75 SW8       29.87F HX  92
FAIRFIELD*     PTSUNNY   83  76  79 CALM      29.87S HX  90
HARRISBURG*    CLOUDY    81  77  90 S6        29.89F HX  88
ROBINSON*      CLOUDY    82  74  76 W9        29.87F HX  87
CARMI*         PTSUNNY   83  76  80 SW5       29.88F HX  91
$$

ABBREVIATIONS USED IN REMARKS
   TC - TEMPERATURE IN CELSIUS
  WCI - WIND CHILL INDEX
   HX - HEAT INDEX
  VSB - VISIBILITY
$$




USA.gov is the U.S. government's official web portal to all federal, state and local government web resources and services.